Location: Beadle
(51.4667°N, 109.0000°W)
Time: 03:56:43
(UTC+00:00)

Altair - Pass Details

Date: 03 June 2022
Orbit: 1501 x 1682 km, 47.2° (Epoch: 30 June)

Event Time Altitude Azimuth Distance (km) Brightness Sun altitude
Rises 23:24:41 0° 254° (WSW) 4,818 11.1 34.3°
Reaches altitude 10° 23:27:46 10° 252° (WSW) 3,856 11.0 33.8°
Maximum altitude 23:37:34 69° 172° (S) 1,759 8.3 32.3°
Drops below altitude 10° 23:47:37 10° 93° (E) 3,946 9.2 30.7°
Sets 23:50:49 0° 91° (E) 4,936 9.6 30.2°
